Regional Weather Roundup
Issued by NWS

Home | Current Version | Previous Version | Graphics & Text | Print | Product List | Glossary On
Versions: 1 2 3 4 5 6 7 8 9 10 11 12 13 14 15 16 17 18 19 20 21 22 23 24 25 26 27 28 29 30 31 32 33 34 35 36 37 38 39 40 41 42 43 44 45 46 47 48 49 50
349
ASUS43 KIND 192009
RWRIN

WEATHER ROUNDUP FOR INDIANA
NATIONAL WEATHER SERVICE INDIANAPOLIS IN
400 PM EDT THU APR 19 2018

NOTE: "FAIR" INDICATES FEW OR NO CLOUDS BELOW 12,000 FEET WITH NO
SIGNIFICANT WEATHER AND/OR OBSTRUCTIONS TO VISIBILITY.

* - STATION DOES NOT REPORT WEATHER SUCH AS PRECIPITATION OR FOG.

+ - STATION NOT QUALITY CONTROLLED BY THE NATIONAL WEATHER SERVICE.
    USE DATA WITH CAUTION...ESPECIALLY DEWPOINT AND RELATIVE
    HUMIDITY OBSERVATIONS.

INZ001>003-010>013-019-020-192100-
NORTHWEST INDIANA

CITY           SKY/WX    TMP DP  RH WIND       PRES   REMARKS
GARY /AIRPORT/ MOSUNNY  N/A N/A N/A N14       30.40R
KNOX *+        FAIR      46  30  53 N18       30.33R
LA PORTE +     FAIR      43  30  59 NW17G25   30.35R
MICHIGAN CITY+ FAIR      41  32  70 NW13G21   30.37R
MONTICELLO +   FAIR      53  23  31 N14G22    30.32R
RENSSELAER +   FAIR      52  16  24 N13G18    30.35R
VALPARAISO     FAIR      48  28  46 NW14G22   30.36R

$$

LMZ046-743>745-192100-
SOUTHERN LAKE MICHIGAN

STATION/POSITION TIME  TEMP    WIND        PRES    WAVE
                       AIR SEA DIR/SP/G            HT
                 (UTC) (F)     (DEG/KT/KT) (MB)    (FT)
BURNS HARBOR     1940   38     340/ 11/ 14 1029.1R
MICHIGAN CITY    1940   38     290/ 12/ 14   N/A

$$

INZ004-005-014>016-021>024-192100-
NORTH CENTRAL INDIANA

CITY           SKY/WX    TMP DP  RH WIND       PRES   REMARKS
ELKHART        FAIR      48  30  49 NW14G21   30.29R
GOSHEN         FAIR      50  31  48 NW15G25   30.27S
LOGANSPORT +   FAIR      52  28  40 N15G22    30.31R
PERU/GRISSOM   FAIR      54  27  35 NW16G23   30.28R
ROCHESTER +    FAIR      54  28  37 N16       30.30R
SOUTH BEND     FAIR      45  32  60 NW17G28   30.32R
WARSAW +       FAIR      50  30  46 NW18      30.28R

$$

INZ006>009-017-018-025>027-192100-
NORTHEAST INDIANA

CITY           SKY/WX    TMP DP  RH WIND       PRES   REMARKS
ANGOLA *+      FAIR      52  23  32 N15       30.22S
AUBURN +       FAIR      52  28  40 NW12G18   30.23S
FORT WAYNE     FAIR      54  31  41 NW13G21   30.25R
HUNTINGTON +   FAIR      52  28  38 NW9G18    30.25S
KENDALLVILLE + FAIR      52  24  33 NW7G18    30.24R

$$

INZ028-029-035-036-043>045-051>053-192100-
WEST CENTRAL INDIANA

CITY           SKY/WX    TMP DP  RH WIND       PRES   REMARKS
CRAWFORDSVL +  FAIR      51  31  47 NW12G20   30.33R
GREENCASTLE +  FAIR      52  28  40 N9        30.33S
LAFAYETTE      FAIR      53  26  35 N13G20    30.33R
TERRE HAUTE    FAIR      54  34  46 NW12G17   30.35R

$$

INZ030>032-037>040-046>048-054>057-064-065-192100-
CENTRAL INDIANA

CITY           SKY/WX    TMP DP  RH WIND       PRES   REMARKS
ANDERSON       SUNNY     54  28  37 N12G23    30.27S
FISHERS *+     FAIR      52  36  54 N9G17     30.30R
FRANKFORT +    FAIR      56  31  39 N14G21    30.33R
GREENWOOD *+   FAIR      53  31  43 NW12G17   30.30S
INDIANAPOLIS   FAIR      54  30  40 NW9G22    30.31R
-EAGLE CREEK   FAIR      54  32  43 NW12      30.30R
KOKOMO +       FAIR      54  29  38 NW18      30.29R
MARION +       FAIR      52  30  43 NW14G21   30.27S
MT COMFORT *+  FAIR      54  36  50 NW16G22   30.29S
SHELBYVILLE    FAIR      54  30  40 NW15G23   30.28S
ZIONSVILLE +   FAIR      51  32  48 N15G22    30.30S

$$

INZ033-034-041-042-049-050-058-059-192100-
EAST CENTRAL INDIANA

CITY           SKY/WX    TMP DP  RH WIND       PRES   REMARKS
MUNCIE         FAIR      54  28  36 NW9G21    30.25S
RICHMOND +     FAIR      50  28  43 NW14G20   30.25S

$$

INZ060-061-067>069-081>083-085>088-192100-
SOUTHWEST INDIANA

CITY           SKY/WX    TMP DP  RH WIND       PRES   REMARKS
EVANSVILLE     PTSUNNY   50  34  54 N8G17     30.36S
HUNTINGBURG +  FAIR      49  34  56 N10G18    30.34S
WASHINGTON +   FAIR      53  31  43 N10G18    30.34S

$$

INZ062-063-066-070>080-084-089>092-192100-
SOUTH CENTRAL AND SOUTHEAST INDIANA

CITY           SKY/WX    TMP DP  RH WIND       PRES   REMARKS
BATESVILLE +   MOSUNNY   50  30  46 MISG      30.27S
BEDFORD +      FAIR      52  28  40 NW12      30.31S
BLOOMINGTON    FAIR      54  31  41 N12G18    30.31S
FRENCH LICK *+ FAIR      52  23  32 N6        30.32S
MADISON *+     FAIR      50  30  46 N7G16     30.31F
NORTH VERNON + FAIR      50  30  46 N10       30.30F

$$





USA.gov is the U.S. government's official web portal to all federal, state and local government web resources and services.